CubeBel-2 (EU11S)
1 57175U 23091K   26217.57036894  .00008070  00000-0  27768-3 0  9998
2 57175  97.5011 281.2589 0007755 303.4832  56.5667 15.30309428171854
RS-38S
1 57189U 23091Z   26217.56878518  .00011176  00000-0  30573-3 0  9998
2 57189  97.5054 288.0881 0005609 244.1040 115.9627 15.37519314172271
SONATE-2
1 59112U 24043Q   26217.38323233  .00033675  00000-0  37816-3 0  9998
2 59112  97.5579  10.9538 0005440  28.6238 331.5317 15.62552898135564
GRBBeta
1 60237U 24128C   26217.59309336  .00002829  00000-0  20028-3 0  9997
2 60237  61.9904  42.8842 0034021 145.5357 214.7952 15.06952986113711
Curium One
1 60242U 24128H   26217.61048388  .00005799  00000-0  33348-3 0  9991
2 60242  61.9790  30.6391 0033098 141.5970 218.7491 15.13173056113931
ROBUSTA-3A
1 60243U 24128J   26217.60376576  .00005154  00000-0  30479-3 0  9991
2 60243  61.9869  33.4121 0035043 138.6151 221.7609 15.12291435113892
CatSat
1 60246U 24125J   26217.09081543  .00060788  00000-0  60840-3 0  9990
2 60246  97.2040  70.4432 0016414   4.7490 355.3923 15.65211956115022
HYPERVIEW-1G (RS66S)
1 61772U 24199AP  26217.62259771  .00456573  91955-4  89481-3 0  9991
2 61772  97.2677 100.5009 0006748 143.7126 216.4611 16.00119304142505
AO-123
1 61781U 24199AY  26217.61091062  .00005525  00000-0  15761-3 0  9991
2 61781  97.2931  85.8407 0015102 126.8563 233.4068 15.36350591141514
LASARsat
1 62391U 24247Q   26217.08891582  .00030387  00000-0  54320-3 0  9997
2 62391  44.9748 346.7994 0009819 290.3559  69.6276 15.49477564 90895
CroCube
1 62394U 24247T   26217.59915341  .00030823  00000-0  50547-3 0  9998
2 62394  44.9719 340.3475 0009973 300.0793  59.9110 15.51899171 91019
JINJUSat 1B
1 63210U 25052A   26217.51794384  .00011804  00000-0  34978-3 0  9993
2 63210  97.3929 114.3746 0000869 251.6015 108.5134 15.35007930 77663
NUSHSAT 1
1 63211U 25052B   26217.47621024  .00014689  00000-0  39647-3 0  9991
2 63211  97.3903 115.0815 0000277 256.7441 103.3773 15.37875458 77711
TEVEL2-4
1 63213U 25052D   26217.25501272  .00014473  00000-0  41087-3 0  9993
2 63213  97.3828 113.7686 0000779   9.8792 350.2467 15.36305850 77641
TEVEL2-5
1 63214U 25052E   26217.21629018  .00014770  00000-0  42195-3 0  9990
2 63214  97.3823 113.6628 0000890   9.9823 350.1438 15.36103577 77630
TEVEL2-6
1 63215U 25052F   26217.16460485  .00014185  00000-0  40585-3 0  9997
2 63215  97.3827 113.5955 0000907  19.8322 340.2957 15.36065792 77621
TEVEL2-1
1 63217U 25052H   26217.40710568  .00013528  00000-0  39449-3 0  9993
2 63217  97.3803 113.4024 0001525  14.1358 345.9928 15.35478145 77648
TEVEL2-3
1 63218U 25052J   26217.26943989  .00013718  00000-0  39919-3 0  9996
2 63218  97.3805 113.2935 0001564  24.2411 335.8905 15.35542209 77629
TEVEL2-2
1 63219U 25052K   26217.40707228  .00013106  00000-0  38215-3 0  9996
2 63219  97.3800 113.4057 0001667  12.0413 348.0870 15.35490286 77649
TEVEL2-9
1 63237U 25052AD  26217.25427795  .00013029  00000-0  40597-3 0  9997
2 63237  97.3861 112.5169 0004884 350.7446   9.3705 15.33379266 77547
TEVEL2-7
1 63238U 25052AE  26217.23992409  .00012276  00000-0  38668-3 0  9994
2 63238  97.3862 112.3967 0005051 349.8050  10.3089 15.33044722 77532
TEVEL2-8
1 63239U 25052AF  26217.24863297  .00012239  00000-0  38571-3 0  9990
2 63239  97.3865 112.3809 0005071 351.4881   8.6275 15.33031190 77536
SPIRONE
1 66657U 25274H   26217.29311094  .00001772  00000-0  17256-3 0  9998
2 66657  97.7468 145.8864 0011163 203.8814 156.1889 14.93728993 37550
K-HERO
1 66660U 25274L   26217.35121997  .00001744  00000-0  16822-3 0  9997
2 66660  97.7477 146.1407 0012953 209.2117 150.8380 14.94130169 37577
SNUGLITE-III DURI
1 66661U 25274M   26217.27103470  .00001238  00000-0  12086-3 0  9991
2 66661  97.7472 146.0824 0013587 211.0396 149.0022 14.94148205 37561
SAKHACUBE-CHOLBON
1 67290U 25313AU  26217.16565294  .00007537  00000-0  29800-3 0  9998
2 67290  97.3899 291.6095 0009532 173.3007 186.8360 15.25723445 33447
RS95S (QMR-KWT-2)
1 67291U 25313AV  26217.16847387  .00010740  00000-0  40115-3 0  9997
2 67291  97.3897 291.9022 0009285 170.9813 189.1595 15.27509467 33468
Ten-Koh2
1 68261U 25241B   26216.66742977  .00006731  00000-0  28400-3 0  9996
2 68261  51.6544  88.8026 0005390 298.1019  61.9414 15.24420382 22302
JACK-002
1 68417U 26067B   26217.41390198  .00004676  00000-0  22051-3 0  9996
2 68417  97.4601 175.4244 0004055  98.1892 261.9803 15.19959245 19428
DISCO 2
1 68431U 26067R   26217.44325141  .00005620  00000-0  26582-3 0  9994
2 68431  97.4632 175.4446 0002977 135.1242 225.0234 15.19770986 19426
HADES-SA (SpinnyONE)
1 68446U 26067AG  26216.41502510  .00018624  00000-0  84972-3 0  9998
2 68446  97.4433 174.0499 0003870 264.4967  95.5827 15.20663115 19253
PARUS-6U1
1 68456U 26067AS  26217.43704842  .00004207  00000-0  21022-3 0  9993
2 68456  97.4586 175.0686 0003634 243.5181 116.5680 15.17998939 19405
SAL-E
1 68458U 26067AU  26217.42169995  .00005318  00000-0  26160-3 0  9990
2 68458  97.4509 174.9654 0003637 258.3500 101.7326 15.18428664 19404
FSI-SAT 2
1 68792U 26088A   26217.35394916  .00003272  00000-0  22117-3 0  9994
2 68792  97.5135   5.4079 0012977 302.4305  57.5667 15.07188923 15693
OrigamiSat 2
1 68795U 26088D   26217.35664748  .00008332  00000-0  51879-3 0  9999
2 68795  97.5130   5.7130 0013592 268.6979  91.2694 15.09759629 15713
ARICA 2
1 68796U 26088E   26217.44325903  .00002913  00000-0  18901-3 0  9995
2 68796  97.5120   5.7354 0014091 269.4052  90.5563 15.08777118 15727
WASEDA-SAT-ZERO-II
1 68797U 26088F   26217.36325107  .00004810  00000-0  30642-3 0  9997
2 68797  97.5120   5.6854 0013972 269.0672  90.8956 15.09140625 15719
MANGARO-II-Piscus
1 68798U 26088G   26217.35207135  .00003072  00000-0  19716-3 0  9995
2 68798  97.5134   5.7140 0017373 272.7859  87.1381 15.09098750 15713
MARINA
1 69920U 26156BD  26217.24759793  .00001521  00000-0  15538-3 0  9994
2 69920  97.7498 117.2330 0008923  63.9388 296.2749 14.92031904  4318
IO-86
1 40931U          26199.45381863  .00000000  00000-0  77536-4 0    07
2 40931   6.0006 322.6653 0012733 338.8432 273.6875 14.79294310    03
LILIUM-4                
1 71922C 26067AC  26089.50133053 -.00014632  00000+0 -74472-3 0    04
2 71922  97.4497  49.1617 0004341   5.9603 355.7042 15.16896692    16
